Regional Weather Roundup
Issued by NWS

Home | Current Version | Previous Version | Graphics & Text | Print | Product List | Glossary On
Versions: 1 2 3 4 5 6 7 8 9 10 11 12 13 14 15 16 17 18 19 20 21 22 23 24 25 26 27 28 29 30 31 32 33 34 35 36 37 38 39 40 41 42 43 44 45 46 47 48 49 50
000
ASUS43 KLOT 050621
RWRIL

ILLINOIS REGIONAL WEATHER ROUNDUP
NATIONAL WEATHER SERVICE CHICAGO/ROMEOVILLE IL
100 AM CDT WED AUG 05 2015

NOTE: "FAIR" INDICATES FEW OR NO CLOUDS BELOW 12,000 FEET WITH NO
SIGNIFICANT WEATHER AND/OR OBSTRUCTIONS TO VISIBILITY.

* THESE STATIONS ARE NOT UNDER NWS QUALITY CONTROL. THEY ALSO MAY NOT
  REPORT WEATHER SUCH AS PRECIPITATION OR FOG.

ILZ001-002-007-009-015-016-024-050700-
NORTHWEST ILLINOIS

CITY           SKY/WX    TMP DP  RH WIND       PRES   REMARKS
MOLINE         PTCLDY    64  61  90 CALM      30.03S
6HR MIN TEMP:  64; 6HR MAX TEMP:  77;

STERLING*      CLEAR     61  57  88 CALM      30.01S
SAVANNA*       CLEAR     59  57  93 N3        30.04S
$$

ILZ003-004-008-010-011-017-018-050700-
NORTH CENTRAL ILLINOIS

CITY           SKY/WX    TMP DP  RH WIND       PRES   REMARKS
ROCKFORD       PTCLDY    62  57  83 CALM      30.05S
6HR MIN TEMP:  61; 6HR MAX TEMP:  76;

FREEPORT*      CLEAR     55  53  92 SW3       30.07R
ROCHELLE*      CLEAR     56  55  94 CALM      30.05S
DE KALB*       CLEAR     61  56  83 CALM      30.06S
PERU*          CLEAR     64  59  83 CALM      30.04F
$$

ILZ005-006-012>014-019>023-050700-
NORTHEAST ILLINOIS

CITY           SKY/WX    TMP DP  RH WIND       PRES   REMARKS
CHICAGO-OHARE  PTCLDY    67  58  72 SW3       30.03F
6HR MIN TEMP:  65; 6HR MAX TEMP:  77;

CHICAGO-MIDWAY PTCLDY    73  60  63 SE3       30.03S
6HR MIN TEMP:  72; 6HR MAX TEMP:  79;

AURORA         CLEAR     59  55  87 CALM      30.05S
6HR MIN TEMP:  59; 6HR MAX TEMP:  75;

LANSING*       CLEAR     61  58  92 CALM      30.04S
JOLIET*        CLEAR     60  58  91 CALM      30.04S
WAUKEGAN       CLEAR     63  59  87 CALM      30.03S
6HR MIN TEMP:  61; 6HR MAX TEMP:  71;

DUPAGE AIRPORT CLEAR     61  56  83 CALM      30.04S
6HR MIN TEMP:  61; 6HR MAX TEMP:  75;

KANKAKEE*      CLEAR     61  59  91 CALM      30.05S
WHEELING       CLEAR     64  58  80 CALM      30.05S
6HR MIN TEMP:  63; 6HR MAX TEMP:  76;

MORRIS*        CLEAR     62  58  88 CALM      30.03S
ROMEOVILLE*    CLEAR     62  56  78 CALM      30.04S
NORTHERLY ISL    N/A     70  59  68 S5          N/A
$$

LMZ740>746-050700-
SOUTHERN LAKE MICHIGAN

STATION/POSITION SKY/WX   TEMP    WIND        PRES    VSBY  WAVE
                          AIR SEA DIR/SP/G                  HT/PER
                          (F)     (DEG/KT/KT) (MB)    (MI)  (FT/S)
HARRISON CRIB              71     170/  6/  7   N/A
BURNHAM HARBOR             70     180/  2/  5   N/A
CALUMET HARBOR             72     110/  4/  5   N/A
BURNS HARBOR               70     170/  2/  5 1017.6S
MICHIGAN CITY              69     140/  7/  8   N/A
MICHIGAN CITY 6N           71 74  190/  6/  8   N/A           1
ST. JOSEPH                 71 74  210/  6/  6   N/A           1
$$

ILZ025>027-034>036-040-047-049-050-058-095>099-050700-
WEST-CENTRAL ILLINOIS

CITY           SKY/WX    TMP DP  RH WIND       PRES   REMARKS
QUINCY         MOCLDY    71  64  78 E5        30.02F
GALESBURG*     PTCLDY    62  62  97 CALM      30.05S
MACOMB*        PTCLDY    64  63  96 CALM      30.05F
JACKSONVILLE*  MOCLDY    69  67  93 CALM      30.04R
PITTSFIELD*    MOCLDY    70  66  87 CALM      30.04F
$$

ILZ028>032-037-038-041>044-048-051>054-059>061-050700-
CENTRAL ILLINOIS

CITY           SKY/WX    TMP DP  RH WIND       PRES   REMARKS
PONTIAC        PTCLDY    63  62  96 CALM      30.05S
BLOOMINGTON    PTCLDY    70  64  81 NE5       30.06F
DECATUR        CLOUDY    69  64  84 CALM      30.05R
PEORIA         PTCLDY    68  63  84 NE3       30.04F
6HR MIN TEMP:  68; 6HR MAX TEMP:  79; 6HR PCP: TRACE;

LACON*         CLEAR     64  61  91 CALM      30.03F
LINCOLN*       MOCLDY    71  65  81 CALM      30.03F
SPRINGFIELD    MOCLDY    68  63  84 CALM      30.04F
6HR MIN TEMP:  66; 6HR MAX TEMP:  78;

TAYLORVILLE    MOCLDY    64  64 100 CALM      30.04F
$$

ILZ033-039-045-046-055>057-062-063-050700-
EAST-CENTRAL ILLINOIS

CITY           SKY/WX    TMP DP  RH WIND       PRES   REMARKS
CHAMPAIGN      MOCLDY    70  60  70 N5        30.05S
DANVILLE*      MOCLDY    63  60  90 N6        30.02F
RANTOUL*       PTCLDY    69  62  78 CALM      30.05S
MATTOON        CLOUDY    66  63  90 CALM      30.04R
PARIS*         CLOUDY    64  63  97 CALM      30.05S
$$

ILZ079-100>102-050700-
SOUTHWEST ILLINOIS

CITY           SKY/WX    TMP DP  RH WIND       PRES   REMARKS
ALTON          MOCLDY    70  67  91 N3        30.03S
BELLEVILLE     MOCLDY    74  73  99 NE2       29.99F
CAHOKIA*       MOCLDY    76  70  82 E3        30.00F
SPARTA*        MOCLDY    72  70  95 CALM      30.02S
$$

ILZ064>066-069>071-074>076-080>082-084>086-088>090-092>094-050700-
SOUTH-CENTRAL ILLINOIS

CITY           SKY/WX    TMP DP  RH WIND       PRES   REMARKS
CARBONDALE     MOCLDY    73  69  87 NE3       30.00R
6HR MIN TEMP:  73; 6HR MAX TEMP:  79;

CAIRO*         CLOUDY    76  73  90 CALM      29.99S
EFFINGHAM*     MOCLDY    69  66  90 CALM      30.05S
MARION         MOCLDY    73  70  88 CALM      30.01F
MT. VERNON     PTCLDY    70  64  83 CALM      30.02F
CENTRALIA*     PTCLDY    70  67  90 CALM      30.02F
SALEM*         PTCLDY    72  69  90 CALM        N/A
METROPOLIS*    CLOUDY    74  73  99 CALM      30.00S
$$

ILZ067-068-072-073-078-083-087-091-050700-
SOUTHEAST ILLINOIS

CITY           SKY/WX    TMP DP  RH WIND       PRES   REMARKS
LAWRENCEVILLE  MOCLDY    71  68  90 CALM      30.03S
FLORA*         MOCLDY    69  67  94 CALM      30.03S
FAIRFIELD*     MOCLDY    70  70  99 CALM      30.01S FOG
HARRISBURG*    MOCLDY    71  71 100 NE3       30.02S
ROBINSON*      MOCLDY    67  66  97 CALM      30.04F
CARMI*         CLOUDY    69  65  88 CALM      30.01F FOG
$$

ABBREVIATIONS USED IN REMARKS
   TC - TEMPERATURE IN CELSIUS
  WCI - WIND CHILL INDEX
   HX - HEAT INDEX
  VSB - VISIBILITY
$$



USA.gov is the U.S. government's official web portal to all federal, state and local government web resources and services.